GFSSGP_sfc_thetae_096.txt.gz
Theta_e
329 323 318 316 306 302 296 297 300 301 301 303 306 304 303 308 308 305 328 336 341 341 344 348 349 350 351 349 348 347 342 342 341 341 340 340 339 340 341 340 344 345 342 340 338 338 337 336 336
319 318 317 312 299 295 294 299 299 303 306 306 305 304 303 307 318 319 329 338 341 342 342 345 346 350 350 348 348 345 343 342 340 340 339 339 338 339 340 340 343 344 341 339 337 336 336 335 335
319 318 310 306 300 295 295 297 301 305 305 305 304 305 306 310 319 322 334 339 340 341 343 344 346 349 349 348 347 346 344 341 339 338 338 338 338 339 338 341 344 343 340 338 336 335 334 334 334
316 311 309 299 298 299 299 300 304 304 304 305 305 304 311 319 320 329 336 338 337 341 344 343 347 349 348 347 347 345 343 340 337 337 336 337 337 338 337 341 342 340 337 335 335 333 333 332 332
313 311 300 297 298 299 301 303 304 303 303 304 304 303 309 318 324 332 335 337 336 342 344 345 346 347 347 347 346 345 342 340 336 335 335 334 336 336 336 337 337 334 334 331 330 330 331 330 330
306 306 297 295 297 300 300 303 302 302 303 304 301 301 309 320 321 327 333 335 337 342 343 344 340 342 345 345 345 344 342 340 337 335 333 332 334 335 335 335 335 333 331 328 326 327 328 328 328
305 301 296 297 298 299 301 304 299 301 302 301 305 300 311 316 323 327 330 332 337 341 343 342 343 340 338 340 341 341 340 339 338 336 334 333 333 333 333 333 332 330 327 324 324 325 325 326 327
305 303 298 296 297 296 301 302 302 301 300 306 305 299 304 314 326 328 328 331 334 339 341 341 341 341 341 339 335 336 337 337 336 333 331 330 329 329 328 326 328 325 324 323 323 324 325 326 326
307 297 294 296 297 296 302 300 301 302 301 301 307 306 313 319 326 326 324 327 331 336 339 340 339 338 340 340 334 332 333 332 330 328 326 324 324 323 325 325 326 325 323 323 323 323 323 323 324
301 296 297 299 299 298 301 300 301 298 299 300 303 307 316 320 321 324 323 324 327 331 336 338 337 338 339 340 336 337 334 332 330 327 325 326 326 325 324 322 324 325 323 323 322 322 323 318 314
299 296 298 299 301 301 301 299 301 298 297 301 302 305 312 318 319 323 323 324 325 330 334 338 338 337 338 336 337 338 336 334 330 327 327 329 324 323 322 319 318 316 316 314 315 314 314 313 312
295 299 299 302 301 300 299 301 299 300 301 304 303 307 311 316 318 323 324 325 326 328 330 332 336 338 338 338 337 336 335 332 329 327 328 327 325 324 321 319 318 317 317 315 313 311 310 309 309
296 298 299 300 299 298 300 298 298 299 302 303 305 306 306 312 316 318 324 325 327 326 328 331 333 334 339 337 336 336 335 333 329 327 327 325 324 323 322 322 320 318 317 315 313 309 307 305 305
299 300 299 301 300 300 297 297 298 299 302 302 303 302 303 306 310 314 317 322 325 327 326 330 330 334 337 336 335 334 335 334 332 330 327 325 324 323 321 321 319 317 314 312 312 308 303 301 298
299 295 298 299 299 298 299 296 296 300 301 301 301 301 303 303 306 308 315 318 324 327 327 329 329 331 331 333 333 334 335 333 333 332 329 327 325 322 321 318 315 312 311 309 307 305 301 297 294
295 294 289 297 299 298 296 289 299 300 300 299 300 300 301 303 304 305 309 317 322 328 327 328 329 328 329 331 331 329 331 332 331 331 330 327 325 323 319 317 312 311 311 306 305 302 298 295 293
294 287 290 294 299 298 295 292 299 300 298 299 299 301 302 302 303 304 306 313 319 325 327 327 326 326 328 330 329 325 325 325 326 330 330 326 326 322 319 317 312 310 307 305 304 299 297 293 292
289 289 291 289 295 294 294 293 298 300 300 299 300 301 302 303 303 304 305 308 319 321 325 327 324 324 326 328 325 320 315 314 315 317 321 326 325 321 319 312 310 309 305 304 301 296 295 293 292
293 291 290 292 296 293 293 294 296 298 298 297 298 298 300 302 305 306 305 306 312 319 322 325 323 322 325 323 317 313 311 309 308 310 311 314 319 320 316 309 308 307 304 303 298 295 293 292 291
293 289 289 293 296 293 293 293 297 298 299 300 299 300 300 301 303 305 304 305 309 317 320 322 323 323 325 321 317 313 311 308 306 305 307 308 310 311 310 307 305 305 303 301 297 296 292 291 291
291 289 289 289 293 293 290 289 293 297 299 301 302 303 302 302 302 304 303 303 306 310 317 319 321 322 322 320 317 303 301 300 299 300 300 302 304 304 306 305 304 304 303 301 298 296 293 289 291
288 293 293 291 288 283 291 281 290 295 296 298 300 300 300 301 303 304 303 302 303 305 311 317 317 318 316 314 311 304 303 304 303 301 300 299 300 301 301 302 302 301 302 300 299 297 294 292 290
291 294 292 291 288 287 287 283 287 293 292 295 298 298 300 302 302 302 302 303 302 305 307 312 314 314 312 311 308 304 303 306 303 301 298 296 296 296 297 298 300 300 301 300 298 296 294 294 292
296 293 292 290 288 281 286 286 284 289 293 295 297 298 301 299 298 299 300 302 301 304 306 309 310 310 308 309 305 303 303 304 300 294 295 294 293 293 294 295 297 299 299 299 298 296 295 294 293
293 289 281 280 279 279 287 285 288 294 296 296 298 299 299 299 297 296 297 298 299 302 305 306 307 306 306 306 304 305 305 303 300 296 294 291 290 289 290 292 293 295 296 297 297 295 294 294 293
290 290 282 276 278 280 284 282 288 296 298 299 301 298 300 299 299 298 298 298 299 302 304 304 304 304 305 304 303 304 305 302 301 298 297 292 293 291 290 290 291 291 292 293 294 294 293 291 290
289 286 292 284 277 278 283 288 293 296 297 298 298 298 298 298 298 298 299 299 299 301 302 303 303 303 303 302 302 302 303 301 299 298 296 293 291 290 288 287 287 288 289 289 291 290 289 288 286
291 293 284 284 274 274 280 281 286 292 293 296 296 298 297 299 298 298 298 298 299 301 301 303 303 302 302 302 302 301 300 299 297 295 292 291 286 285 285 285 285 285 286 287 287 286 285 285 282
289 287 289 289 285 278 277 281 291 293 296 295 297 299 299 298 298 297 297 298 299 300 300 301 301 301 300 300 300 299 297 297 293 291 288 286 284 284 284 284 284 284 284 284 284 284 284 283 282
293 290 290 283 281 283 282 285 295 296 296 297 296 296 295 296 298 296 296 297 297 298 299 299 299 299 299 299 299 297 296 294 290 288 285 284 284 284 283 283 283 282 282 283 283 282 282 281 281

GFSSGP_sfc_thetae_102.txt.gz
Theta_e
317 312 310 309 300 295 289 291 293 295 295 297 300 303 304 306 305 297 321 336 340 342 345 347 348 349 348 346 345 343 342 341 341 340 340 342 342 344 343 340 341 338 337 337 338 339 339 338 340
314 314 309 302 293 288 288 292 293 296 299 300 302 302 305 306 314 323 329 338 341 343 345 345 345 348 348 346 345 345 343 341 340 340 340 340 341 344 342 339 339 336 336 337 338 338 338 339 338
313 310 302 297 290 287 288 292 296 298 299 299 299 304 307 309 314 325 333 338 342 343 345 345 345 347 347 346 344 344 343 341 340 340 340 341 344 344 341 339 336 336 335 336 337 337 337 337 337
307 303 298 292 289 291 294 297 298 297 298 301 301 304 308 315 322 328 337 339 340 342 343 343 346 348 347 345 345 343 342 340 339 339 339 341 343 341 339 337 335 334 334 335 336 334 336 337 337
304 299 293 290 290 291 294 298 297 297 296 297 301 301 308 320 323 334 337 337 337 339 342 344 345 346 346 345 344 343 341 340 338 338 338 340 341 339 337 335 334 333 332 333 334 333 334 334 333
298 296 290 287 289 293 295 299 299 296 298 298 301 304 308 320 327 330 335 336 339 338 342 343 339 341 343 343 342 341 341 340 338 338 337 338 339 336 335 333 331 330 330 332 332 332 332 332 331
297 292 289 289 290 293 297 298 297 297 297 298 302 303 307 315 326 329 336 337 338 339 340 341 341 339 337 338 338 339 339 338 337 338 338 337 337 335 333 332 328 328 329 330 331 331 330 330 329
299 296 290 291 290 291 295 296 297 298 297 301 305 303 304 313 323 327 335 336 337 338 339 339 339 339 339 337 333 334 335 335 335 334 332 330 331 331 330 327 328 327 328 329 329 329 328 327 326
298 291 289 289 291 292 295 295 296 298 299 299 302 305 308 316 322 322 327 328 333 337 337 339 339 338 337 335 331 330 330 330 329 327 324 321 320 319 320 323 327 327 328 328 327 326 324 321 320
294 289 291 291 292 293 296 295 297 295 295 296 303 308 313 318 318 318 323 327 328 330 334 337 337 338 336 337 332 330 329 326 323 321 319 320 319 319 320 320 324 325 326 326 324 321 317 311 307
293 291 293 293 295 296 295 294 295 295 292 297 301 307 314 316 317 318 319 328 328 330 334 335 337 338 336 336 334 332 327 324 323 319 320 321 319 319 317 316 315 314 313 312 312 310 308 305 306
291 294 294 297 297 296 294 295 293 295 297 298 300 311 315 317 317 318 317 321 325 327 331 334 336 336 336 335 334 333 330 325 323 321 322 320 318 317 314 313 311 310 310 307 306 305 304 303 303
291 292 294 296 296 294 295 293 293 295 297 297 299 310 313 316 318 319 320 321 325 326 329 332 334 334 335 334 334 333 331 328 324 323 326 322 318 316 315 312 311 310 308 306 304 302 300 299 299
294 295 294 295 295 295 293 291 292 294 294 295 300 303 310 312 315 314 318 320 322 327 328 331 332 333 335 334 333 333 333 330 324 322 323 321 320 319 317 314 312 310 308 305 303 299 295 294 296
296 290 292 293 295 294 294 290 292 294 295 294 295 299 303 310 312 314 321 322 323 326 327 328 332 333 334 333 334 333 332 328 325 323 323 322 321 320 318 316 316 312 308 302 297 294 293 292 292
291 289 285 290 294 294 292 286 292 295 293 294 294 293 296 301 308 313 316 323 323 325 324 325 332 332 333 333 333 333 332 330 326 324 324 322 322 321 320 318 314 311 306 300 295 293 292 290 290
288 282 285 289 294 294 291 287 293 295 293 293 294 295 294 295 298 301 310 317 323 324 324 324 328 330 333 333 333 333 332 331 328 325 324 323 323 321 320 317 313 309 304 300 296 293 292 288 288
283 284 286 285 292 291 289 290 293 294 294 294 294 294 295 296 298 300 300 309 318 323 325 325 327 328 331 329 329 331 331 331 330 328 326 325 323 321 319 313 310 308 303 299 295 292 291 290 289
287 286 284 287 292 291 290 289 292 294 293 293 293 293 294 296 301 300 299 301 308 318 323 323 324 325 326 325 326 326 326 325 328 329 327 324 323 320 318 312 309 308 304 299 294 291 290 289 289
287 285 284 288 291 290 288 289 291 293 294 296 296 294 294 294 295 298 299 297 302 313 321 322 324 324 326 326 325 321 324 316 319 315 323 324 321 320 317 312 310 308 303 298 294 292 289 289 289
286 285 285 286 287 287 287 284 287 290 292 295 296 296 296 295 295 296 297 297 298 307 318 321 323 324 326 324 312 306 308 308 308 308 309 312 321 319 316 313 310 307 304 297 294 293 292 287 289
284 289 288 287 284 280 285 278 284 288 291 292 294 295 292 295 296 296 297 296 297 304 315 321 323 322 323 315 316 314 318 313 310 310 307 307 309 318 315 313 310 307 305 299 295 294 293 291 288
287 291 288 286 283 282 281 280 283 286 287 291 293 293 293 292 294 296 296 297 297 301 311 317 319 320 318 317 317 316 315 314 307 308 307 305 304 306 309 311 309 307 306 301 297 295 293 293 291
292 289 288 285 283 278 282 282 279 284 288 289 291 293 295 295 295 296 296 297 297 302 308 313 316 317 315 317 315 316 312 308 306 306 307 305 302 301 302 304 307 307 305 302 298 296 295 294 293
289 285 277 277 276 276 281 280 282 288 291 290 292 294 295 296 296 296 297 296 297 300 306 309 313 311 313 315 312 313 311 308 306 307 308 304 300 296 299 301 302 303 304 303 300 298 296 295 294
286 285 278 272 274 277 282 279 285 291 294 294 295 296 296 295 295 295 295 296 298 299 300 305 307 308 308 308 305 305 304 305 308 306 306 304 303 302 300 299 300 301 302 302 301 299 297 295 294
287 284 287 281 270 274 279 283 288 290 292 292 293 293 293 296 296 296 296 297 297 298 299 300 302 302 303 302 301 301 303 301 299 298 297 298 299 297 297 297 297 297 298 299 299 298 296 295 294
288 291 283 281 272 271 277 278 282 288 290 292 294 294 295 297 296 295 296 296 297 297 298 300 300 301 301 301 301 300 300 299 298 295 294 293 291 291 291 294 294 294 294 295 296 295 294 293 293
287 286 286 287 282 275 273 278 286 288 292 292 294 294 293 294 294 294 295 295 296 297 297 299 299 299 299 300 299 299 298 298 296 295 293 292 289 288 288 291 291 291 291 291 292 291 290 292 291
288 287 288 281 278 281 279 282 291 293 293 293 293 293 293 292 293 293 294 295 295 296 296 297 298 298 298 298 298 298 297 295 294 293 291 289 288 286 286 286 289 289 289 289 290 289 289 290 287

GFSSGP_sfc_thetae_105.txt.gz
Theta_e
318 310 307 307 298 293 287 290 293 294 294 296 299 301 301 304 300 295 321 333 338 340 344 345 348 348 347 344 342 343 343 341 340 341 342 342 344 341 339 338 337 337 337 339 338 339 339 338 336
311 311 307 300 292 286 287 292 292 295 297 302 301 302 305 304 313 323 327 336 339 341 343 345 345 347 346 343 344 344 343 340 340 340 340 342 344 340 338 336 336 335 337 339 338 339 338 337 335
311 307 302 295 288 287 287 291 295 296 299 298 298 305 306 307 314 325 330 338 340 341 343 343 344 347 346 344 344 343 343 341 339 340 341 343 344 340 337 336 335 335 337 336 337 338 337 336 336
306 302 298 292 287 289 290 295 296 296 297 301 301 302 309 314 322 327 336 339 340 341 342 342 345 347 345 345 344 342 342 341 340 340 342 345 342 339 335 335 334 334 335 334 336 338 338 338 336
302 298 291 290 289 292 293 296 296 296 296 297 301 301 307 317 325 334 336 339 339 339 341 342 344 345 345 345 343 343 342 341 341 339 342 342 340 337 334 334 333 333 334 334 336 336 335 335 334
297 296 289 287 289 291 294 295 295 295 297 297 302 304 308 317 328 332 335 335 339 339 341 342 338 340 343 343 342 341 341 340 339 339 341 340 338 336 333 332 331 332 333 333 334 334 333 333 332
296 293 288 288 288 291 295 297 294 296 296 296 306 301 305 314 326 332 333 334 337 339 340 341 340 338 336 338 338 339 339 339 339 339 340 338 336 335 332 331 330 331 332 332 332 332 331 331 330
298 294 288 288 290 290 294 296 296 297 297 299 306 301 302 317 326 331 333 333 334 338 339 339 338 338 337 335 332 334 335 336 337 335 333 331 331 331 329 328 330 330 331 331 330 330 329 328 327
297 290 287 290 291 291 295 294 295 297 298 298 301 305 308 320 325 330 330 332 333 335 337 337 338 338 335 333 329 329 330 331 330 328 325 322 321 319 319 324 328 330 329 329 328 327 325 322 321
294 290 290 292 291 291 295 294 296 296 295 298 303 308 310 319 323 326 327 327 329 331 333 336 336 337 336 334 329 328 327 325 323 321 319 319 317 317 319 320 325 327 326 326 324 321 316 311 307
293 291 292 293 294 294 295 293 294 294 293 296 300 305 311 315 318 323 327 328 328 331 333 335 335 336 336 334 332 328 324 321 320 317 318 317 317 316 316 316 314 313 313 312 310 307 306 305 306
291 293 293 296 296 294 293 294 292 293 295 297 300 308 313 315 318 319 322 326 326 327 331 333 335 336 336 335 332 330 324 321 319 317 318 317 316 314 313 311 311 309 308 306 304 303 303 302 302
290 292 293 294 294 292 294 291 293 293 296 296 298 310 312 316 318 320 321 323 325 326 329 331 334 335 336 334 333 331 327 322 320 318 319 318 316 314 312 310 309 308 306 304 302 301 300 299 299
293 293 292 294 293 293 292 289 291 291 293 294 298 306 311 314 315 313 315 317 324 327 328 331 332 333 334 333 332 332 330 326 321 319 321 318 317 314 311 309 309 307 305 303 300 298 297 295 296
294 290 290 292 292 293 293 289 292 292 293 292 293 297 305 309 312 315 318 318 322 327 328 329 331 332 333 333 332 332 331 329 323 320 320 319 318 317 315 313 311 308 303 298 296 294 294 293 292
290 288 284 288 292 292 290 285 290 292 292 293 292 291 294 299 309 312 316 319 319 324 326 328 331 330 332 333 332 331 332 329 325 321 322 320 319 319 315 314 313 306 302 299 296 295 293 290 290
287 281 284 288 292 291 289 287 291 293 292 292 292 293 293 294 296 304 312 315 320 322 325 325 329 329 330 332 332 331 331 330 326 322 322 321 320 320 317 315 312 307 301 297 295 294 292 291 289
283 283 284 284 289 289 287 289 292 293 292 292 293 293 293 294 296 297 302 312 317 321 324 325 326 329 330 331 332 331 330 330 329 324 322 321 322 320 318 316 311 305 300 296 294 292 291 291 288
286 284 283 286 290 289 288 289 291 293 292 293 292 293 293 294 298 297 297 300 308 317 320 323 323 327 330 331 329 328 327 327 328 327 323 323 323 320 318 314 309 305 301 297 294 291 289 287 288
285 284 283 287 290 290 288 288 291 291 293 294 294 293 293 292 292 295 296 295 298 308 318 321 323 325 328 330 331 329 328 327 328 327 326 324 323 321 318 313 309 306 302 296 292 292 289 289 288
284 283 284 286 286 285 285 284 286 288 290 292 293 294 294 294 294 295 295 295 295 298 310 319 321 324 326 328 324 312 314 312 311 314 323 323 322 320 317 314 311 307 303 296 294 293 291 287 289
283 288 288 286 284 280 284 277 283 287 289 291 292 292 291 291 293 294 294 295 294 297 303 315 320 322 324 325 322 323 323 320 320 320 319 315 321 320 318 314 312 309 305 299 295 294 293 290 288
287 289 287 285 282 281 281 280 282 284 286 290 290 290 291 293 292 292 293 295 296 296 302 313 317 319 321 319 321 321 321 322 313 316 314 315 309 316 317 314 312 309 307 301 298 295 293 293 291
291 288 286 284 282 277 281 281 279 283 286 287 288 290 293 295 295 295 296 296 296 298 302 309 314 317 318 317 319 318 320 308 309 310 313 311 309 307 307 311 312 311 308 303 299 296 295 294 294
287 284 277 276 275 276 280 279 281 287 288 288 290 290 293 294 294 294 295 295 297 299 303 307 310 309 314 314 314 315 315 308 310 311 313 309 304 301 304 305 305 307 308 305 301 298 296 295 294
285 285 278 271 273 276 281 279 284 289 291 291 291 291 293 293 294 294 294 294 295 296 298 303 305 306 308 311 311 309 308 309 310 310 310 310 308 308 306 304 305 305 305 305 302 299 297 296 295
286 282 285 279 269 274 278 282 287 289 290 293 294 293 292 294 294 294 295 294 295 295 297 299 300 302 304 305 306 305 305 304 308 306 306 306 304 301 301 301 301 301 302 302 301 299 297 296 295
288 290 283 281 273 271 276 278 281 286 290 291 291 292 292 293 293 294 294 295 296 296 297 299 300 300 301 301 301 301 301 302 304 301 300 299 298 296 296 297 297 297 298 298 299 298 297 295 295
286 285 285 285 281 274 272 278 285 289 291 290 290 291 291 292 292 293 294 295 295 296 296 297 298 299 299 299 299 299 299 298 298 298 296 293 291 291 291 293 293 293 293 294 295 296 294 294 294
289 287 286 279 277 279 279 279 288 291 292 293 292 292 291 291 292 293 294 294 294 295 296 296 297 297 297 298 298 298 297 295 295 294 293 291 290 288 288 288 288 290 291 291 293 293 293 292 292

GFSSGP_sfc_thetae_111.txt.gz
Theta_e
317 310 311 308 299 296 293 295 297 297 298 301 306 304 306 307 304 299 327 334 336 341 346 346 347 347 345 343 344 344 344 345 345 344 342 340 338 338 339 341 343 343 341 339 337 337 339 339 338
312 311 309 302 296 291 292 295 295 298 303 305 305 308 308 306 317 323 329 336 340 343 345 347 344 346 345 343 344 344 344 344 343 344 343 339 338 337 338 338 342 342 338 339 337 336 336 336 336
311 307 304 297 291 292 292 294 297 300 305 303 305 309 309 309 319 327 333 338 342 343 345 344 344 345 345 344 344 343 343 343 342 345 342 339 337 337 337 336 338 340 338 337 337 335 335 335 336
307 303 299 295 293 295 295 296 298 299 301 302 307 305 311 318 326 330 337 340 340 342 344 343 345 346 345 344 344 343 343 343 344 344 341 338 336 335 336 335 335 340 339 340 338 338 337 337 336
303 299 294 292 294 295 295 299 298 299 300 303 304 303 309 320 328 335 338 339 339 341 343 344 343 345 345 344 343 343 343 343 344 345 342 339 336 335 336 335 335 338 337 338 337 336 336 338 337
300 298 292 290 292 295 298 298 299 299 300 302 305 306 311 323 330 334 338 338 339 339 342 343 337 340 342 342 342 342 343 343 345 344 342 338 335 334 334 335 334 335 335 334 335 334 334 335 335
298 294 291 291 292 295 298 298 297 297 298 301 307 304 309 319 330 334 337 339 339 339 341 342 342 339 336 338 338 340 341 341 343 342 338 336 335 335 335 335 335 332 333 335 334 334 334 333 332
297 296 291 291 291 294 296 298 299 298 298 305 309 301 305 317 331 333 336 335 335 336 340 340 340 341 340 340 332 334 337 337 338 336 332 330 331 331 331 330 332 332 333 333 332 332 332 330 329
300 292 290 292 292 294 295 297 298 300 300 301 307 305 310 324 331 331 331 330 332 334 336 339 339 339 338 337 332 331 331 331 330 329 326 325 328 327 328 328 330 331 331 330 329 329 327 325 324
296 291 292 294 294 294 295 296 298 298 298 299 302 308 320 326 327 326 327 328 329 331 334 337 338 337 336 334 334 334 333 333 331 329 328 326 324 324 327 325 326 327 328 327 325 323 319 317 319
296 293 294 294 295 296 296 295 297 297 296 299 300 305 318 322 325 326 326 328 328 330 333 335 337 338 335 333 332 331 331 330 328 327 325 322 321 324 326 326 324 323 317 319 315 314 315 315 317
293 294 294 295 297 296 295 296 295 296 299 299 300 306 317 319 322 325 326 327 327 329 331 334 336 336 335 333 331 329 328 327 326 324 323 321 321 321 322 322 321 319 315 312 312 312 311 312 312
291 292 293 295 295 293 295 294 295 295 298 297 300 308 315 320 323 327 328 329 328 328 330 332 335 336 335 332 331 329 326 325 324 323 322 321 320 319 320 319 317 314 312 311 310 310 310 309 308
293 293 292 294 294 294 292 291 293 293 295 295 299 303 310 317 320 320 323 326 326 328 329 331 333 334 335 333 331 329 327 324 323 322 321 320 319 318 318 316 314 311 311 310 310 309 308 306 306
293 291 291 292 293 293 294 291 292 293 294 294 295 297 304 311 315 319 323 324 327 329 330 330 332 333 333 333 332 331 329 324 322 321 321 320 318 317 316 315 312 310 308 306 305 304 303 303 302
290 289 286 289 293 293 291 287 290 293 292 293 293 293 294 300 311 315 317 321 323 328 328 331 331 332 332 333 332 331 329 326 322 320 321 319 318 317 315 314 312 307 305 304 304 303 301 299 299
287 283 285 287 292 292 290 288 291 294 293 293 294 294 294 294 296 301 313 317 320 325 328 329 331 331 331 332 331 331 329 327 325 321 320 320 319 317 315 313 310 307 303 302 301 300 299 298 295
284 283 284 284 288 289 288 289 292 293 293 294 294 294 294 294 297 298 298 308 317 320 326 329 330 332 331 331 330 330 329 329 327 322 321 320 319 318 316 314 308 305 301 300 300 298 299 297 296
287 285 284 285 289 288 288 288 291 292 292 293 293 294 295 295 297 298 298 298 307 316 320 325 327 330 330 329 327 328 327 328 326 324 322 320 320 319 317 314 308 304 301 300 298 296 293 293 291
286 285 284 286 289 289 287 288 290 291 292 294 294 294 293 294 294 296 296 296 297 306 316 320 325 328 329 330 330 329 328 329 328 326 323 321 320 319 317 314 309 306 303 298 297 295 293 290 293
284 284 284 285 286 285 284 284 285 287 289 291 292 292 292 292 293 294 294 294 295 295 306 317 321 326 329 331 330 326 324 323 326 325 323 322 321 320 318 316 312 307 304 300 297 297 297 291 294
283 287 286 286 284 281 284 278 283 286 288 289 290 290 291 293 295 296 296 297 297 296 296 310 318 322 326 329 329 326 325 323 325 326 325 323 323 321 320 318 314 311 307 303 300 298 298 297 294
285 288 287 285 283 282 281 280 282 284 287 288 289 291 291 292 294 294 295 297 298 302 298 297 309 318 321 326 328 327 325 326 325 325 324 323 322 323 321 319 316 313 309 306 303 299 298 298 297
289 286 285 283 281 277 280 281 279 283 285 286 288 292 293 293 294 294 295 296 297 300 306 307 307 312 317 322 326 327 325 324 320 322 322 322 321 321 320 319 317 314 310 308 303 302 299 298 301
285 284 278 277 276 276 280 279 281 286 288 288 289 293 293 293 293 293 294 295 296 297 300 307 310 310 315 319 323 323 324 323 320 320 321 317 314 309 317 318 316 314 312 311 307 303 300 299 299
284 284 279 273 274 276 280 279 283 287 290 291 293 293 293 293 293 293 294 295 295 296 298 300 304 309 312 314 315 316 317 317 317 318 319 319 317 316 316 314 316 315 314 312 308 305 302 300 298
285 282 284 278 269 274 278 282 286 289 291 291 292 292 291 292 293 293 293 294 295 296 296 298 299 300 304 309 311 312 312 311 311 311 313 314 313 309 310 310 310 307 307 308 306 304 300 300 298
286 288 281 279 270 270 275 278 280 286 288 290 290 291 291 291 291 292 292 292 293 294 295 297 298 298 299 301 303 305 307 307 307 307 307 306 305 303 302 303 303 303 302 303 303 301 299 298 297
284 283 283 283 280 274 271 277 283 287 289 289 290 290 290 290 291 291 291 292 292 293 294 294 295 296 297 298 299 300 301 301 303 305 304 303 300 302 300 300 299 298 298 298 299 299 297 297 296
285 285 285 281 277 277 277 278 287 290 291 292 290 289 290 290 290 290 291 291 291 291 292 292 293 294 295 296 297 297 298 298 298 298 298 297 298 296 295 295 295 296 295 295 296 296 296 295 294

GFSSGP_sfc_thetae_114.txt.gz
Theta_e
322 319 323 321 306 307 299 300 304 305 307 310 318 313 311 311 309 305 333 339 337 342 343 347 347 346 344 342 343 344 346 346 344 342 338 338 339 341 341 342 343 342 338 338 340 341 341 340 339
319 317 321 316 304 298 299 302 302 306 309 311 314 312 311 310 321 328 332 338 338 342 343 346 344 346 345 343 343 344 345 346 344 342 338 338 339 339 340 341 341 339 337 337 337 337 338 338 337
315 315 314 309 306 299 299 302 305 307 310 310 311 314 314 313 325 331 338 338 340 341 343 346 344 346 345 344 343 344 345 345 344 342 339 337 338 338 337 339 341 339 338 336 337 335 336 337 337
316 315 311 305 300 301 301 304 306 309 307 307 312 309 316 322 330 336 340 339 341 342 344 343 344 346 345 344 344 344 344 344 345 343 339 337 337 337 336 338 340 339 338 339 338 338 337 338 337
314 311 304 301 299 301 302 305 308 308 307 308 311 307 313 324 334 339 339 340 340 342 345 345 344 345 345 344 343 343 344 344 344 343 338 336 336 336 334 337 340 339 338 337 337 338 337 336 335
309 308 301 298 299 301 304 306 307 306 306 308 309 309 314 331 335 339 340 341 342 341 344 344 337 340 342 343 343 343 344 344 344 342 339 336 335 336 334 336 337 335 333 334 336 337 336 335 334
306 304 301 301 299 301 304 306 305 306 306 307 312 306 315 328 336 339 341 342 341 342 343 343 343 339 336 338 339 341 342 344 343 340 338 336 335 336 336 335 335 334 335 336 333 333 334 333 332
306 305 299 300 299 299 305 305 305 305 304 310 315 305 308 324 337 336 340 340 340 339 342 342 343 341 340 340 333 335 338 339 338 335 332 331 331 332 332 330 333 334 335 334 334 333 332 330 329
306 302 299 299 299 301 303 304 304 306 306 309 313 310 315 330 334 332 332 333 334 336 338 339 341 341 340 339 335 332 332 332 331 329 326 327 331 331 330 328 332 333 332 332 332 331 328 326 325
305 301 300 303 304 302 303 305 305 305 305 305 308 313 324 332 330 328 328 329 331 332 334 338 339 340 340 337 338 338 337 338 338 336 333 331 329 330 329 325 326 329 328 328 327 325 321 325 326
303 300 301 301 301 303 303 302 305 305 303 307 307 311 324 327 328 329 330 330 330 332 334 337 339 339 339 337 337 337 337 336 337 336 334 330 327 330 330 329 326 326 321 325 324 323 325 325 325
300 299 300 300 302 301 301 303 302 304 306 306 309 313 324 325 327 329 329 330 331 332 332 336 338 338 338 338 337 336 335 335 334 334 333 328 326 328 328 328 327 326 324 322 323 323 323 323 323
299 299 298 300 299 300 301 300 301 302 306 304 306 311 319 324 327 330 331 332 331 330 332 334 337 337 337 337 336 336 334 334 333 332 331 328 325 325 327 327 326 324 321 321 321 321 321 320 320
299 298 298 299 299 299 298 298 299 301 302 302 303 309 314 321 325 328 329 329 330 331 331 333 334 337 337 335 334 335 334 333 332 331 330 328 326 325 326 325 323 321 320 321 320 320 320 318 318
299 296 298 298 299 298 299 297 297 302 300 300 301 305 310 316 323 326 329 330 332 332 333 332 333 335 336 335 334 333 335 332 331 330 330 328 326 324 324 324 321 319 318 318 317 317 317 316 315
296 296 293 295 298 298 298 294 297 300 300 301 301 302 304 307 316 324 327 330 334 334 331 332 332 333 335 335 335 334 334 333 331 330 329 327 325 324 323 322 321 318 316 316 316 315 315 314 313
294 291 291 292 297 297 296 295 298 300 301 301 302 302 302 303 305 311 322 327 330 333 335 334 332 333 333 335 335 334 333 334 332 330 329 327 325 323 322 321 321 316 313 311 310 310 313 309 308
290 290 290 292 294 295 294 296 299 300 300 302 303 304 304 304 306 308 308 316 325 328 332 335 335 332 333 334 334 333 331 333 334 330 328 326 325 323 320 320 317 313 312 311 309 310 308 309 305
293 291 290 292 294 294 295 295 298 301 300 301 303 304 304 305 307 305 306 307 308 318 326 330 333 333 332 331 329 328 326 328 330 332 329 327 323 322 320 318 314 309 307 306 306 304 304 299 301
292 290 290 291 294 294 293 294 298 299 299 302 303 303 303 303 304 303 304 304 305 307 315 323 329 333 331 331 331 330 329 329 330 332 330 327 322 322 320 318 312 310 307 304 303 302 299 304 302
291 290 290 290 291 292 291 292 293 295 295 297 298 299 299 299 301 304 305 305 304 304 307 315 322 328 332 331 331 329 328 326 327 326 329 327 322 320 320 318 317 309 308 304 303 302 302 300 297
288 292 291 290 290 287 291 286 292 294 294 295 297 298 300 301 302 303 304 307 309 309 306 306 316 322 329 331 329 328 326 324 326 328 326 327 324 321 321 321 315 311 308 307 306 306 307 306 302
291 292 291 291 290 289 288 287 291 290 293 294 296 297 299 300 301 301 303 304 309 313 310 304 311 319 325 330 328 327 327 328 328 328 326 324 324 323 321 320 318 314 311 310 308 305 303 304 303
293 292 291 290 289 284 288 287 288 291 292 293 294 298 299 300 300 301 302 304 305 311 317 314 307 315 323 326 327 326 326 326 325 325 325 324 323 322 322 320 319 317 314 312 311 305 304 304 303
292 291 284 282 283 282 285 284 290 292 292 294 296 299 298 299 301 301 302 303 303 305 309 312 314 314 319 323 324 324 325 325 325 325 324 323 320 316 321 321 319 318 316 313 311 307 303 302 302
291 291 285 279 279 282 284 283 289 292 294 295 298 298 299 300 300 300 300 301 302 303 305 307 311 312 314 317 318 320 321 322 322 322 323 323 321 320 321 319 319 318 316 313 312 308 304 303 302
289 287 291 282 277 282 286 288 293 293 295 296 296 297 297 298 298 299 299 300 301 302 303 305 306 307 309 311 312 314 315 315 315 315 315 316 316 312 314 313 311 311 311 311 310 307 304 302 300
291 293 285 286 280 279 283 284 288 290 293 294 295 296 296 296 297 298 298 299 300 300 302 304 304 304 305 307 309 310 311 311 311 310 310 309 308 306 305 306 307 305 305 305 305 304 302 300 300
288 287 288 289 287 283 280 284 292 294 296 295 296 296 296 297 297 297 297 297 298 299 300 300 301 302 303 305 305 306 307 308 310 310 310 310 307 306 303 303 302 301 301 301 301 301 299 298 299
292 290 290 285 282 284 283 285 291 293 297 298 296 295 296 297 296 296 296 296 296 296 296 297 297 298 299 302 303 303 304 304 305 305 304 304 305 303 303 302 302 301 300 300 299 299 298 297 295